TimeCST,TemperatureF,Dew PointF,Humidity,Sea Level PressureIn,VisibilityMPH,Wind Direction,Wind SpeedMPH,Gust SpeedMPH,PrecipitationIn,Events,Conditions,WindDirDegrees,DateUTC
12:51 AM,46.0,43.0,89,30.07,4.0,North,9.2,-,0.00,,Light Drizzle,350,2013-01-15 06:51:00
1:51 AM,46.0,43.0,89,30.07,4.0,NNW,8.1,-,0.00,,Light Drizzle,340,2013-01-15 07:51:00
2:15 AM,46.4,42.8,87,30.07,3.0,NNW,9.2,-,0.01,,Light Drizzle,330,2013-01-15 08:15:00
2:51 AM,46.4,42.8,87,30.07,3.0,NW,12.7,-,N/A,Rain,Light Rain,320,2013-01-15 08:51:00
3:10 AM,46.4,42.8,87,30.06,3.0,NNW,12.7,-,0.00,Rain,Light Rain,330,2013-01-15 09:10:00
3:51 AM,46.0,44.1,93,30.07,4.0,NNW,16.1,-,0.01,Rain,Light Rain,330,2013-01-15 09:51:00
4:51 AM,46.0,43.0,89,30.05,4.0,North,13.8,-,0.01,Rain,Light Rain,350,2013-01-15 10:51:00
5:51 AM,46.0,43.0,89,30.06,4.0,North,15.0,-,0.01,Rain,Light Rain,360,2013-01-15 11:51:00
6:51 AM,46.0,43.0,89,30.07,4.0,North,13.8,-,0.01,Rain,Light Rain,10,2013-01-15 12:51:00
7:51 AM,45.0,42.1,90,30.09,4.0,NNE,16.1,-,0.01,,Light Drizzle,20,2013-01-15 13:51:00
8:51 AM,45.0,42.1,90,30.09,4.0,North,16.1,-,0.00,,Light Drizzle,10,2013-01-15 14:51:00
9:51 AM,45.0,41.0,86,30.13,5.0,North,17.3,-,0.00,,Light Drizzle,360,2013-01-15 15:51:00
10:22 AM,44.6,41.0,87,30.12,4.0,North,13.8,-,0.00,,Light Drizzle,10,2013-01-15 16:22:00
10:51 AM,45.0,41.0,86,30.12,4.0,North,15.0,-,0.00,,Light Drizzle,10,2013-01-15 16:51:00
11:23 AM,44.6,42.8,93,30.11,6.0,North,12.7,-,0.00,,Light Drizzle,10,2013-01-15 17:23:00
11:51 AM,45.0,41.0,86,30.10,4.0,North,15.0,-,0.00,,Light Drizzle,350,2013-01-15 17:51:00
12:28 PM,44.6,41.0,87,30.10,4.0,North,13.8,-,0.00,,Light Drizzle,350,2013-01-15 18:28:00
12:51 PM,45.0,41.0,86,30.07,4.0,North,13.8,-,0.00,,Light Drizzle,360,2013-01-15 18:51:00
1:51 PM,44.1,41.0,89,30.07,8.0,North,17.3,-,0.00,,Light Drizzle,350,2013-01-15 19:51:00
2:39 PM,44.6,39.2,81,30.07,10.0,NNW,13.8,-,0.00,,Overcast,340,2013-01-15 20:39:00
2:51 PM,44.6,39.2,81,30.08,10.0,North,17.3,-,N/A,,Overcast,350,2013-01-15 20:51:00
3:44 PM,44.6,39.2,81,30.09,10.0,NNW,13.8,-,N/A,,Overcast,340,2013-01-15 21:44:00
3:51 PM,44.1,39.0,82,30.09,10.0,NNW,16.1,-,N/A,,Overcast,340,2013-01-15 21:51:00
4:17 PM,44.6,37.4,76,30.10,10.0,North,18.4,-,N/A,,Overcast,350,2013-01-15 22:17:00
4:51 PM,44.1,37.0,76,30.12,10.0,North,19.6,-,N/A,,Overcast,350,2013-01-15 22:51:00
5:51 PM,44.1,37.0,76,30.14,10.0,North,15.0,24.2,N/A,,Overcast,350,2013-01-15 23:51:00
6:51 PM,43.0,36.0,76,30.16,10.0,North,12.7,-,N/A,,Overcast,350,2013-01-16 00:51:00
7:07 PM,42.8,37.4,81,30.15,10.0,North,12.7,-,N/A,,Overcast,360,2013-01-16 01:07:00
7:51 PM,43.0,35.1,74,30.16,10.0,North,20.7,26.5,N/A,,Overcast,350,2013-01-16 01:51:00
8:51 PM,43.0,36.0,76,30.19,10.0,North,18.4,-,N/A,,Overcast,360,2013-01-16 02:51:00
9:51 PM,43.0,36.0,76,30.20,10.0,NNW,15.0,-,N/A,,Overcast,340,2013-01-16 03:51:00
10:51 PM,43.0,36.0,76,30.22,10.0,North,16.1,-,N/A,,Overcast,350,2013-01-16 04:51:00
11:51 PM,44.1,36.0,73,30.24,10.0,NNW,12.7,21.9,N/A,,Overcast,340,2013-01-16 05:51:00